EST,Max TemperatureF,Mean TemperatureF,Min TemperatureF,Max Dew PointF,MeanDew PointF,Min DewpointF,Max Humidity, Mean Humidity, Min Humidity, Max Sea Level PressureIn, Mean Sea Level PressureIn, Min Sea Level PressureIn, Max VisibilityMiles, Mean VisibilityMiles, Min VisibilityMiles, Max Wind SpeedMPH, Mean Wind SpeedMPH, Max Gust SpeedMPH,PrecipitationIn, CloudCover, Events, WindDirDegrees
2013-1-1,34,23,10,22,13,0,64,57,49,29.98,29.84,29.72,10,10,8,17,13,28,0.00,6,,276
2013-1-2,24,14,1,12,5,-7,73,62,50,30.22,30.01,29.90,10,9,2,18,9,32,0.00,5,Snow,278
2013-1-3,19,6,-6,11,-2,-13,74,60,41,30.24,30.12,29.99,10,9,4,9,5,,0.00,3,Snow,266
2013-1-4,36,28,19,18,16,13,77,54,44,29.97,29.90,29.84,10,10,7,24,10,32,0.00,6,,274
2013-1-5,36,27,18,21,16,10,78,58,35,30.26,30.11,29.89,10,10,8,21,14,31,0.00,4,,277
2013-1-6,37,29,21,26,21,14,81,69,54,30.19,30.02,29.92,10,8,2,13,4,,0.01,7,Snow,200
2013-1-7,36,24,12,27,17,7,80,67,51,30.40,30.26,29.99,10,10,8,14,7,17,0.00,5,,285
2013-1-8,42,27,12,19,16,8,84,66,38,30.40,30.33,30.28,10,9,5,9,4,,0.00,0,,256
2013-1-9,44,28,12,28,19,7,84,64,40,30.39,30.21,30.01,10,8,5,22,4,38,0.00,3,,197
2013-1-10,41,34,23,26,20,17,78,54,41,30.56,30.40,30.15,10,10,10,23,15,39,0.00,2,,269
2013-1-11,39,29,19,34,23,14,87,71,44,30.53,30.33,30.14,10,10,4,14,5,22,0.12,5,Rain,86
2013-1-12,46,40,35,40,36,33,97,88,74,30.17,30.13,30.09,10,9,2,8,4,,0.00,7,,110
2013-1-13,50,42,35,46,39,34,100,91,76,30.15,30.06,29.94,10,6,1,13,4,18,0.00,7,,106
2013-1-14,48,40,33,43,32,20,93,71,49,30.31,30.10,29.87,10,10,7,20,9,26,0.05,4,Rain,260
2013-1-15,35,30,26,22,20,17,81,65,52,30.37,30.30,30.24,10,10,10,7,2,,0.00,4,,280
2013-1-16,32,30,28,29,26,19,93,86,64,30.22,29.97,29.81,10,3,0,7,3,,0.26,8,Fog-Rain-Snow,70
2013-1-17,36,28,21,25,18,3,88,63,44,30.15,29.99,29.88,10,10,7,17,7,28,0.00,6,Snow,271
2013-1-18,21,15,9,3,-3,-8,67,45,33,30.42,30.32,30.07,10,10,10,18,6,24,0.00,3,,269
2013-1-19,42,32,23,21,14,4,55,45,35,30.27,30.05,29.81,10,10,10,15,4,28,0.00,5,,175
2013-1-20,46,34,19,31,17,6,85,56,38,29.99,29.79,29.57,10,8,1,21,8,39,0.03,5,Rain-Snow,284
2013-1-21,24,20,17,15,7,1,81,58,38,30.07,29.95,29.79,10,9,2,10,6,18,0.00,7,Snow,260
2013-1-22,19,14,8,13,1,-9,81,58,33,30.10,29.94,29.75,10,7,0,21,8,29,0.00,7,Snow,277
2013-1-23,8,4,0,-5,-11,-13,60,48,38,30.18,30.14,30.05,10,10,9,17,12,28,0.00,2,,268
2013-1-24,15,5,-5,-9,-10,-13,72,52,32,30.34,30.22,30.15,10,10,10,24,8,37,0.00,0,,279
2013-1-25,16,10,3,6,-3,-12,77,56,31,30.40,30.19,30.04,10,6,1,16,7,26,0.01,5,Snow,273
2013-1-26,18,12,5,1,-1,-4,80,62,40,30.32,30.15,30.02,10,10,6,10,5,20,0.00,3,,267
2013-1-27,25,16,6,2,-1,-4,73,53,29,30.51,30.45,30.31,10,10,10,12,7,,0.00,0,,279
2013-1-28,27,17,7,22,15,0,86,72,40,30.50,30.15,29.95,10,5,0,12,5,20,0.09,8,Rain-Snow,87
2013-1-29,37,32,27,32,27,23,88,82,70,30.15,30.08,29.99,10,5,2,13,1,20,0.23,8,Rain,84
2013-1-30,59,48,37,54,45,33,100,86,69,30.05,29.63,29.33,10,6,0,21,8,41,0.10,8,Fog-Rain,91
2013-1-31,61,42,24,54,27,13,89,71,41,29.62,29.38,28.93,10,5,0,30,9,41,0.61,8,Rain-Snow,278